Regional Weather Roundup
Issued by NWS

Home | Current Version | Previous Version | Text Only | Print | Product List | Glossary On
Versions: 1 2 3 4 5 6 7 8 9 10 11 12 13 14 15 16 17 18 19 20 21 22 23 24 25 26 27 28 29 30 31 32 33 34 35 36 37 38 39 40 41 42 43 44 45 46 47 48 49 50
000
ASUS43 KOAX 241902
RWRNE

WEATHER ROUNDUP FOR NEBRASKA
NATIONAL WEATHER SERVICE OMAHA NE
100 PM CST TUE JAN 24 2017

NOTES: SATELLITE DATA IS BEING USED TO AUGMENT CLOUD COVER ABOVE
       12000 FEET.
       "FAIR" INDICATES FEW OR NO CLOUDS BELOW 12,000 FEET WITH NO
       SIGNIFICANT WEATHER AND/OR OBSTRUCTIONS TO VISIBILITY.

  * THESE STATIONS DO NOT REPORT WEATHER SUCH AS RAIN...SNOW OR FOG.

NEZ001>004-019>022-054>056-242000-
NEBRASKA PANHANDLE

CITY           SKY/WX    TMP DP  RH WIND       PRES   REMARKS
SCOTTSBLUFF    CLOUDY    23  16  74 N17       29.69F WCI   9
ALLIANCE       FOG       19  16  88 N28G35    29.64F VSB 1/2 WCI   1
CHADRON        SNOW      22  18  85 N14       29.75F VSB 1/2 WCI   9
KIMBALL        CLOUDY    22  19  89 N23       29.61F FOG     WCI   6
SIDNEY         CLOUDY    24  17  74 N29G35    29.60S WCI   7
$$

NEZ057>060-069>072-079>082-242000-
SOUTHWEST NEBRASKA

CITY           SKY/WX    TMP DP  RH WIND       PRES   REMARKS
NORTH PLATTE   LGT SNOW  32  28  85 N14       29.53F FOG     WCI  22
IMPERIAL       CLOUDY    30  26  85 N24G33    29.54F WCI  16
LEXINGTON      LGT SNOW  31  30  94 NE9       29.51F VSB 3/4 WCI  23
MCCOOK         CLOUDY    33  31  92 N13       29.51F WCI  24
OGALLALA       PTSUNNY   30  26  85 N25       29.57S WCI  16
$$

NEZ005>010-023>029-035>040-094-242000-
NORTH CENTRAL NEBRASKA

CITY           SKY/WX    TMP DP  RH WIND       PRES   REMARKS
VALENTINE      SNOW      28  25  88 N13       29.64F VSB 1/4 WCI  17
AINSWORTH      SNOW      28  28 100 NE14      29.61F VSB 1/2 WCI  17
BROKEN BOW     HVY SNOW  31  31 100 NE5       29.52S VSB 1/4 WCI  26
O`NEILL        MIX PCPN  30  30  97 NE12      29.59F WCI  21
ORD            SNOW      31  29  92 E9        29.52F VSB 1/4 WCI  23
THEDFORD       LGT SNOW  29  28  96 N9G16     29.57S VSB 3/4 WCI  21
$$

NEZ041-046>049-061>064-073>077-083>087-242000-
SOUTH CENTRAL NEBRASKA

CITY           SKY/WX    TMP DP  RH WIND       PRES   REMARKS
GRAND ISLAND   CLOUDY    31  29  92 E20G26    29.48F WCI  19
AURORA         CLOUDY    31  31  98 E15G23    29.49F WCI  20
HASTINGS       CLOUDY    31  29  92 E12G22    29.49F FOG     WCI  22
HEBRON         CLOUDY    35  32  90 E10       29.45F WCI  27
HOLDREGE       LGT SNOW  31  30  95 E7        29.49F WCI  24
KEARNEY *      CLOUDY    30  28  93 E10       29.50F WCI  21
YORK           MOSUNNY   32  30  93 E16G22    29.51F WCI  21
$$

NEZ011>018-030>034-042>045-242000-
NORTHEAST NEBRASKA

CITY           SKY/WX    TMP DP  RH WIND       PRES   REMARKS
NORFOLK        LGT SNOW  31  28  89 E15       29.58F FOG     WCI  20
ALBION         LGT SNOW  32  30  91 E18G29    29.53F WCI  21
BLAIR          CLOUDY    33  30  90 E16G22    29.57F WCI  22
FREMONT        CLOUDY    32  31  96 NE20G26   29.57F FOG     WCI  20
TEKAMAH        CLOUDY    33  29  85 E14       29.61F WCI  23
WAYNE          CLOUDY    32  31  96 NE18      29.61F FOG     WCI  20
$$

NEZ050>053-065>068-078-088>093-242000-
SOUTHEAST NEBRASKA

CITY           SKY/WX    TMP DP  RH WIND       PRES   REMARKS
LINCOLN        CLOUDY    34  29  82 E15       29.55F WCI  24
OMAHA EPPLEY   CLOUDY    34  28  79 E15G25    29.59F WCI  24
BEATRICE       CLOUDY    34  32  91 E16       29.49F WCI  24
FALLS CITY     CLOUDY    36  32  85 E18       29.52F WCI  26
NEBRASKA CITY  CLOUDY    34  30  83 E18G26    29.52F WCI  23
PLATTSMOUTH    CLOUDY    36  30  78 E20G26    29.52F WCI  25
$$

NEZ044-045-051>053-067-242000-
OMAHA AREA

CITY           SKY/WX    TMP DP  RH WIND       PRES   REMARKS
OMAHA EPPLEY   CLOUDY    34  28  79 E15G25    29.59F WCI  24
BLAIR          CLOUDY    33  30  90 E16G22    29.57F WCI  22
FREMONT        CLOUDY    32  31  96 NE20G26   29.57F FOG     WCI  20
MILLARD        CLOUDY    36  31  81 E9G21     29.57F WCI  29
PLATTSMOUTH    CLOUDY    36  30  78 E20G26    29.52F WCI  25
WAHOO          CLOUDY    33  30  90 NE17      29.55F WCI  21
$$



USA.gov is the U.S. government's official web portal to all federal, state and local government web resources and services.